Tucson Davis Monthan, AZ

5:05 AM MST on December 11, 2019 (GMT -0700)
Davis-Monthan Air Force Base

Weather History for KDMA - October, 2019

Change the Weather History Date:

Thursday, October 31, 2019

  Actual Average Record
Temperature  
Mean Temperature 58 °F -  
Max Temperature 75 °F 76 °F 89 °F (1990)
Min Temperature 41 °F 49 °F 35 °F (1981)
Degree Days  
Heating Degree Days 7    
Growing Degree Days 8 (Base 50)    
Moisture  
Dew Point 3 °F    
Average Humidity 11    
Maximum Humidity 17    
Minimum Humidity 6    
Precipitation  
Precipitation 0.00 in - - ()
Sea Level Pressure  
Sea Level Pressure 30.09 in    
Wind  
Wind Speed 6 mph (ENE)    
Max Wind Speed 20 mph    
Max Gust Speed 24 mph    
Visibility 10 miles    
Events      
Averages and records for this station are not official NWS values.
T = Trace of Precipitation, MM = Missing Value Source: NWS Daily Summary

Daily Weather History Graph

Daily Weather History Graph

Search for Another Location

Airport or City:

Astronomy

Oct. 31, 2019 Rise Set
Actual Time 6:39 AM MST 5:34 PM MST
Civil Twilight 6:14 AM MST 5:59 PM MST
Nautical Twilight 5:45 AM MST 6:28 PM MST
Astronomical Twilight 5:16 AM MST 6:57 PM MST
Moon 10:21 AM MST (10/31) 8:43 PM MST (10/31)
Length of Visible Light 11h 45m
Length of Day
10h 54m
Waxing Crescent, 16% of the Moon is Illuminated
Oct 31
Waxing Crescent
Nov 4
First Quarter
Nov 12
Full
Nov 19
Last Quarter
Nov 26
New

Hourly Weather History & Observations

Time (MST) Temp. Windchill Dew Point Humidity Pressure Visibility Wind Dir Wind Speed Gust Speed Precip Events Conditions
12:58 AM 41.0 °F - -1.8 °F 17% 30.16 in 10.0 mi Calm Calm - N/A   Clear
1:58 AM 42.6 °F - -1.8 °F 16% 30.15 in 10.0 mi Calm Calm - N/A   Clear
2:58 AM 41.4 °F - -1.5 °F 17% 30.14 in 10.0 mi Calm Calm - N/A   Clear
3:58 AM 42.4 °F - -5.1 °F 13% 30.13 in 10.0 mi Calm Calm - N/A   Clear
4:58 AM 45.7 °F 40.6 °F -7.8 °F 10% 30.13 in 10.0 mi ESE 10.4 mph - N/A   Clear
5:58 AM 45.7 °F 41.0 °F -7.8 °F 10% 30.15 in 10.0 mi ESE 9.2 mph - N/A   Clear
6:58 AM 46.9 °F - -6.9 °F 10% 30.16 in 10.0 mi East 11.5 mph - N/A   Clear
7:58 AM 54.1 °F - -8.7 °F 7% 30.16 in 10.0 mi ESE 5.8 mph - N/A   Clear
8:58 AM 60.3 °F - -7.4 °F 6% 30.17 in 10.0 mi ENE 11.5 mph - N/A   Clear
9:58 AM 64.8 °F - -4.0 °F 6% 30.16 in 10.0 mi ENE 10.4 mph - N/A   Clear
10:58 AM 68.0 °F - 1.6 °F 7% 30.14 in 10.0 mi NE 10.4 mph - N/A   Clear
11:50 AM 69.8 °F - 3.2 °F 7% 30.11 in 10.0 mi NE 12.7 mph 18.4 mph N/A   Clear
11:58 AM 70.0 °F - 3.0 °F 7% 30.10 in 10.0 mi ESE 19.6 mph 24.2 mph N/A   Clear
12:58 PM 73.2 °F - 13.3 °F 10% 30.06 in 10.0 mi NE 10.4 mph - N/A   Clear
1:58 PM 74.8 °F - 14.5 °F 10% 30.04 in 10.0 mi NNE 11.5 mph - N/A   Clear
2:58 PM 75.7 °F - 15.3 °F 10% 30.02 in 10.0 mi NNE 3.5 mph - N/A   Clear
3:58 PM 74.7 °F - 9.3 °F 8% 30.01 in 10.0 mi NNE 10.4 mph - N/A   Clear
4:58 PM 73.2 °F - 10.9 °F 9% 30.01 in 10.0 mi NNE 9.2 mph - N/A   Clear
5:58 PM 67.6 °F - 9.1 °F 10% 30.02 in 10.0 mi NE 6.9 mph - N/A   Clear
6:58 PM 67.5 °F - 12.7 °F 12% 30.09 in 10.0 mi Variable 6.9 mph - N/A   Clear
7:58 PM 58.5 °F - 10.9 °F 15% 30.05 in 10.0 mi Calm Calm - N/A   Clear
8:58 PM 57.4 °F - 10.0 °F 15% 30.05 in 10.0 mi ESE 4.6 mph - N/A   Clear
9:58 PM 53.4 °F - 9.7 °F 17% 30.06 in 10.0 mi East 9.2 mph - N/A   Clear
10:58 PM 54.1 °F - 9.0 °F 16% 30.06 in 10.0 mi East 9.2 mph - N/A   Clear
11:58 PM 56.3 °F - 7.7 °F 14% 30.04 in 10.0 mi East 12.7 mph - N/A   Clear